Simultaneous Nadir Overpasses (SNOs) Predictions

Prediction of SNOs between METOP-B and NOAA-19 Satellite Orbit:

Table of predicted SNOs for the next 14.0 days since TLE Epoch: 9/30/2023
Index Date (METOP-B) Time (METOP-B) Lat,Lon (METOP-B) SZA (METOP-B ) Date (NOAA-19) Time (NOAA-19) Lat,Lon (NOAA-19) SZA (NOAA-19 ) Distance(km) Time Diff (sec)
1 10/06/2023 00:49:35 80.79,-161.14 87.27 10/06/2023 00:48:29 80.78,-161.19 87.24 1.15 66
2 10/06/2023 01:40:16 -80.79, 6.24 92.71 10/06/2023 01:39:30 -80.79, 6.19 92.73 0.78 46
3 10/06/2023 02:30:56 80.80, 173.71 87.33 10/06/2023 02:30:27 80.79, 173.60 87.30 2.07 29
4 10/06/2023 03:21:37 -80.80, -18.92 92.66 10/06/2023 03:21:28 -80.80, -19.02 92.67 1.82 9
5 10/06/2023 04:12:17 80.81, 148.55 87.38 10/06/2023 04:12:25 80.80, 148.39 87.36 3.01 8
6 10/06/2023 05:02:58 -80.81, -44.07 92.61 10/06/2023 05:03:26 -80.80, -44.23 92.61 2.86 28
7 10/06/2023 05:53:39 80.80, 123.05 87.39 10/06/2023 05:54:23 80.81, 123.19 87.42 2.68 44



Historial Predications of SNOs between METOP-B and NOAA-19
